Location: Unspecified
(46.0725°N, 13.7344°E)
Time: 02:13:16
(UTC+02:00)

ISS - Visible Passes

Search period start: 26 October 2021 00:00
Search period end: 04 November 2021 23:00
Orbit: 417 x 423 km, 51.6° (Epoch: 25 October)

Date Brightness Start Highest point End Pass type
(mag) Time Alt. Az. Time Alt. Az. Time Alt. Az.
26 Oct -3.0 05:32:54 50° SE 05:32:54 50° SE 05:36:00 10° ENE visible
26 Oct -3.1 07:06:24 10° W 07:09:37 40° NNW 07:12:50 10° ENE visible
27 Oct -0.6 04:47:50 15° E 04:47:50 15° E 04:48:36 10° ENE visible
27 Oct -3.4 06:20:50 28° W 06:22:17 51° NNW 06:25:35 10° ENE visible
28 Oct -3.1 05:35:41 50° NE 05:35:41 50° NE 05:38:21 10° ENE visible
29 Oct -0.6 04:50:28 15° ENE 04:50:28 15° ENE 04:51:05 10° ENE visible
29 Oct -2.8 06:23:27 24° NW 06:24:46 34° N 06:27:54 10° ENE visible
30 Oct -2.5 05:38:11 34° NNE 05:38:11 34° NNE 05:40:37 10° ENE visible
30 Oct -2.5 07:11:42 10° WNW 07:14:45 31° N 07:17:48 10° ENE visible
31 Oct -0.5 03:52:52 13° NE 03:52:52 13° NE 03:53:21 10° ENE visible
31 Oct -2.5 05:25:51 21° NW 05:27:20 30° N 05:30:22 10° ENE visible
01 Nov -2.2 04:40:31 29° NNE 04:40:31 29° NNE 04:42:58 10° ENE visible
02 Nov -0.5 03:55:11 13° NE 03:55:11 13° NE 03:55:37 10° ENE visible
02 Nov -2.6 05:28:10 21° NW 05:29:52 34° N 05:32:59 10° ENE visible
03 Nov -2.3 04:42:49 30° NNE 04:42:49 30° NNE 04:45:30 10° ENE visible
03 Nov -3.6 06:16:16 10° WNW 06:19:38 71° NNE 06:22:59 10° ESE visible
04 Nov -0.5 03:57:30 13° ENE 03:57:30 13° ENE 03:58:02 10° ENE visible
04 Nov -3.2 05:30:29 23° NW 05:32:18 51° NNE 05:35:35 10° E visible
